Location: Staunton
(38.1490°N, 79.0720°W)
Time: 13:52:22
(UTC-05:00)

ISS - Pass Details

Date: 13 December 2017
Orbit: 402 x 407 km, 51.6° (Epoch: 11 December)

Event Time Altitude Azimuth Distance (km) Brightness Sun altitude
Rises 18:14:21 0° 315° (NW) 2,327 0.4 -14.8°
Reaches altitude 10° 18:16:33 10° 324° (NW) 1,464 -0.8 -15.2°
Maximum altitude 18:19:37 35° 33° (NNE) 667 -3.2 -15.7°
Enters shadow 18:19:50 35° 43° (NE) 673 -3.2 -15.8°
